sat.trackr.live / text

‹ back to catalog

ONEWEB-0332

NORAD 49279 · 2021-090A

PAYLOAD ACTIVE UNKNOWN

§ Identity

Operator
Country
UK
Launch date
2021-10-14
Launch site
VOSTO
Launch vehicle
Mass (kg)
RCS (m²)

Purposes: comms

External: N2YO · Heavens-Above · Gunter

§ Orbital elements

Epoch: 2026-09-19T23:39:47.922048Z

Period
109.55 min
Inclination
87.8896°
Eccentricity
0.0001963
Mean motion
13.14503563 rev/d
Perigee alt
1,204.3 km
Apogee alt
1,207.3 km
Semi-major
7,583.9 km
B*
-2.7230e-4
RAAN
270.8007°
Arg perigee
85.4374°
Mean anomaly
274.6980°
Rev number
24,003

§ Raw data

ONEWEB-03321 49279U 21090A   26262.98597132 -.00000088  00000+0 -27230-3 0  99992 49279  87.8896 270.8007 0001963  85.4374 274.6980 13.14503563240039

JSON: /api/v1/satellites/49279 · /tle

For live sub-satellite position, see the globe view (requires WebGL).

§ Visibility from observer

Set your observer location to see the next 7 days of passes ≥ 10°. The values pass through the URL so the page stays shareable.

No JS? Fill the form by hand. The geolocation button needs JavaScript.